TimeEST,TemperatureF,Dew PointF,Humidity,Sea Level PressureIn,VisibilityMPH,Wind Direction,Wind SpeedMPH,Gust SpeedMPH,PrecipitationIn,Events,Conditions,WindDirDegrees,DateUTC
12:51 AM,25.0,8.1,49,30.00,10.0,WNW,17.3,25.3,N/A,,Partly Cloudy,300,2013-02-21 05:51:00
1:51 AM,25.0,8.1,49,30.00,10.0,WNW,16.1,26.5,N/A,,Partly Cloudy,300,2013-02-21 06:51:00
2:51 AM,25.0,9.0,51,30.00,10.0,WNW,18.4,27.6,N/A,,Partly Cloudy,290,2013-02-21 07:51:00
3:51 AM,25.0,8.1,49,30.00,10.0,WNW,18.4,23.0,N/A,,Partly Cloudy,300,2013-02-21 08:51:00
4:51 AM,25.0,9.0,51,30.00,10.0,WNW,16.1,-,N/A,,Scattered Clouds,300,2013-02-21 09:51:00
5:51 AM,26.1,9.0,49,30.02,10.0,WNW,15.0,26.5,N/A,,Overcast,290,2013-02-21 10:51:00
6:51 AM,26.1,8.1,47,30.02,10.0,NW,21.9,33.4,N/A,,Mostly Cloudy,320,2013-02-21 11:51:00
7:51 AM,27.0,8.1,45,30.03,10.0,WNW,17.3,31.1,N/A,,Mostly Cloudy,290,2013-02-21 12:51:00
8:51 AM,28.0,8.1,43,30.01,10.0,WNW,23.0,31.1,N/A,,Scattered Clouds,290,2013-02-21 13:51:00
9:51 AM,30.9,8.1,38,30.01,10.0,WNW,27.6,33.4,N/A,,Scattered Clouds,290,2013-02-21 14:51:00
10:51 AM,32.0,9.0,38,30.02,10.0,WNW,23.0,34.5,N/A,,Scattered Clouds,290,2013-02-21 15:51:00
11:51 AM,34.0,10.0,37,30.02,10.0,WNW,28.8,38.0,N/A,,Scattered Clouds,300,2013-02-21 16:51:00
12:51 PM,35.1,10.0,35,30.00,10.0,NW,27.6,36.8,N/A,,Scattered Clouds,320,2013-02-21 17:51:00
1:51 PM,36.0,10.0,34,30.00,10.0,NW,26.5,31.1,N/A,,Scattered Clouds,310,2013-02-21 18:51:00
2:51 PM,36.0,10.0,34,30.00,10.0,NW,24.2,31.1,N/A,,Partly Cloudy,310,2013-02-21 19:51:00
3:51 PM,35.1,10.9,37,30.03,10.0,NW,23.0,-,N/A,,Partly Cloudy,320,2013-02-21 20:51:00
4:51 PM,33.1,10.0,38,30.06,10.0,NW,23.0,35.7,N/A,,Partly Cloudy,320,2013-02-21 21:51:00
5:51 PM,30.9,10.9,43,30.10,10.0,NW,21.9,28.8,N/A,,Partly Cloudy,320,2013-02-21 22:51:00
6:51 PM,28.9,10.9,47,30.13,10.0,NNW,24.2,31.1,N/A,,Partly Cloudy,330,2013-02-21 23:51:00
7:51 PM,28.0,10.9,49,30.22,10.0,NW,18.4,-,N/A,,Clear,320,2013-02-22 00:51:00
8:51 PM,27.0,10.9,51,30.25,10.0,NNW,18.4,25.3,N/A,,Clear,330,2013-02-22 01:51:00
9:51 PM,26.1,10.9,53,30.26,10.0,NNW,19.6,-,N/A,,Clear,330,2013-02-22 02:51:00
10:51 PM,26.1,12.0,55,30.27,10.0,North,18.4,24.2,N/A,,Clear,350,2013-02-22 03:51:00
11:51 PM,26.1,12.9,58,30.28,10.0,North,12.7,21.9,N/A,,Clear,360,2013-02-22 04:51:00